Weather in Mozyr

Belarus     52˚03′09″N   29˚14′42″E
temp.,
°C
wind,
m/s
gust,
m/s
humid.,
%
clouds,
%
prec.,
mm/h
press.,
hPa
HPBL,
m
28 november, sat
sat2800:00+2˚wsw489885 0.2 1016354
03:00+3˚wsw389392 0.9 1016495
06:00+3˚sw479299 0.2 1016404
09:00+2˚sw259298 0.3 1016262
12:00+3˚ssw249299 0.3 1018347
15:00+4˚sse238095 0.3 1017506
18:00+2˚se359397 0.1 1018171
21:00+2˚sse249296 0.1 1018320
29 november, sun
sun2900:00+1˚sse239493 0.1 1019110
03:00se229584 0.1 101974
06:00+1˚sse249197 0.1 1019221
09:00−1˚s249595 0.1 1020145
12:00+1˚s348394 0.0 1020454
15:00+2˚sse347792 0.1 1020632
18:00+1˚sse358999 0.1 1021293
21:00sse259399 0.1 1022178
30 november, mon
mon3000:00ssw2393100 0.0 1022218
03:00−2˚s129585 0.0 102323
06:00−2˚ssw12957 0.0 102326
09:00−2˚sw12934 0.0 102523
12:00sw23740 0.0 1025393
15:00+1˚wsw23725 0.0 1026666
18:00w347969 0.0 1026410
21:00−1˚w357785 0.0 1027700
1 december, tue
tue100:00−1˚w137797 0.0 1028182
03:00−1˚w127896 0.0 102867
06:00−2˚w129287 0.0 102824
09:00−3˚w119563 0.0 102921
12:00nw11801 0.0 1030311
15:00n117419 0.0 1029514
18:00−2˚ene128618 0.0 103021
21:00−3˚e228329 0.0 103043
2 december, wed
wed200:00−3˚ene228224 0.0 103034
03:00−4˚ne228423 0.0 103053
06:00−4˚ne22870 0.0 102952
09:00−4˚ne22920 0.0 102950
12:00−2˚ne228529 0.0 1029245
15:00−1˚ene118653 0.0 1028248
18:00−2˚e119787 0.1 102825
21:00−2˚sse129891 0.1 102934